Location: Ch�tillon
(48.8024°N, 2.2935°E)
Time: 19:12:45
(UTC+00:00)

STRAND 1 - Pass Details

Date: 02 July 2022
Orbit: 767 x 781 km, 98.4° (Epoch: 09 August)

Event Time Altitude Azimuth Distance (km) Brightness Sun altitude
Rises 20:44:56 0° 2° (N) 3,274 ? -6.6°
Reaches altitude 10° 20:48:04 10° 342° (NNW) 2,338 ? -7.0°
Maximum altitude 20:51:09 16° 305° (NW) 1,932 ? -7.3°
Drops below altitude 10° 20:54:12 10° 268° (W) 2,324 ? -7.7°
Sets 20:57:19 0° 248° (WSW) 3,243 ? -8.0°
